Location: Estes Par
(40.3770°N, 105.5210°W)
Time: 02:59:43
(UTC-07:00)

Vanguard 1 Rocket - Visible Passes

Search period start: 23 February 2018 00:00
Search period end: 05 March 2018 00:00
Orbit: 655 x 4222 km, 34.3° (Epoch: 22 February)

Date Brightness Start Highest point End Pass type
(mag) Time Alt. Az. Time Alt. Az. Time Alt. Az.
23 Feb 10.3 02:39:46 68° SSW 02:39:47 68° SSW 03:00:55 10° ESE visible
23 Feb 10.6 04:57:03 25° W 05:09:37 39° SW 05:25:03 10° SSE visible
23 Feb 10.3 20:08:48 10° SSW 20:22:26 39° SE 20:24:20 38° SE visible
23 Feb 10.5 22:32:29 10° WSW 23:15:20 15° E 23:17:35 10° E visible
24 Feb 10.6 01:32:38 55° SE 01:32:38 55° SE 01:48:22 10° ESE visible
24 Feb 10.4 03:49:55 46° WSW 03:56:26 52° SSW 04:14:53 10° SE visible
24 Feb 11.0 06:08:58 10° W 06:23:27 20° SW 06:34:35 10° SSW visible
24 Feb 10.5 19:00:17 10° S 19:10:45 25° SE 19:17:43 20° ESE visible
24 Feb 10.1 21:21:18 10° SW 21:35:04 56° S 21:35:04 56° S visible
24 Feb 11.1 23:47:31 10° WSW 00:25:35 32° ESE 00:34:50 10° E visible
25 Feb 10.4 02:42:54 63° SSW 02:42:54 63° SSW 03:03:33 10° SE visible
25 Feb 10.7 05:00:11 24° W 05:11:29 33° SW 05:26:49 10° S visible
25 Feb 10.1 20:11:04 10° SSW 20:24:31 45° SE 20:28:25 42° ESE visible
25 Feb 10.4 22:35:23 10° WSW 23:18:37 13° E 23:20:21 10° E visible
26 Feb 10.6 01:35:56 52° SE 01:35:56 52° SE 01:51:07 10° ESE visible
26 Feb 10.5 03:53:15 43° WSW 03:58:29 46° SW 04:17:05 10° SSE visible
26 Feb 11.2 06:14:17 10° W 06:25:09 15° WSW 06:34:14 10° SSW visible
26 Feb 10.3 19:01:58 10° S 19:12:42 30° SE 19:21:42 21° E visible
26 Feb 10.0 21:24:04 10° SW 21:39:02 63° SSE 21:39:02 63° SSE visible
26 Feb 11.0 23:50:32 10° W 00:29:03 30° ESE 00:37:36 10° ESE visible
27 Feb 10.4 02:46:23 57° SSW 02:46:23 57° SSW 03:06:00 10° SE visible
27 Feb 10.9 05:03:43 22° W 05:13:15 27° SW 05:28:06 10° S visible
27 Feb 10.0 20:13:36 10° SW 20:26:45 51° SSE 20:32:16 43° ESE visible
27 Feb 10.3 22:38:22 10° WSW 23:22:16 12° E 23:23:06 10° E visible
28 Feb 10.7 01:06:27 10° W 01:39:36 47° SE 01:53:44 10° ESE visible
28 Feb 10.7 03:56:56 39° SW 04:00:26 40° SW 04:18:58 10° SSE visible
28 Feb 10.1 19:04:05 10° SSW 19:14:47 36° SE 19:25:27 22° E visible
28 Feb 10.0 21:26:58 10° WSW 21:42:26 67° SSE 21:42:46 67° SSE visible
28 Feb 10.9 23:53:34 10° W 00:32:53 27° ESE 00:40:18 10° ESE visible
01 Mar 10.6 02:50:13 50° SSW 02:50:13 50° SSW 03:08:13 10° SE visible
01 Mar 11.1 05:07:34 19° WSW 05:14:58 22° SW 05:28:42 10° S visible
01 Mar 9.9 20:16:20 10° SW 20:29:11 56° SSE 20:35:52 44° ESE visible
01 Mar 10.2 22:41:26 10° WSW 23:26:14 - E 22:53:10 56° WSW visible
02 Mar 10.9 01:09:28 10° W 01:43:35 41° SE 01:56:09 10° SE visible
02 Mar 10.8 04:00:56 34° SW 04:02:17 34° SW 04:20:27 10° SSE visible
02 Mar 9.9 19:06:30 10° SSW 19:17:02 42° SE 19:28:53 22° E visible
02 Mar 9.9 21:30:00 10° WSW 21:45:06 70° SSE 21:46:11 70° SSE visible
02 Mar 10.8 23:56:39 10° W 00:36:59 23° ESE 00:42:52 10° ESE visible
03 Mar 10.7 02:54:20 42° S 02:54:20 42° S 03:10:09 10° SSE visible
03 Mar 11.2 05:11:41 15° WSW 05:16:41 17° SW 05:28:07 10° SSW visible
03 Mar 10.1 17:57:47 10° S 18:05:55 26° SE 18:18:52 10° E visible
03 Mar 9.8 20:19:14 10° SW 20:31:45 61° SSE 20:39:08 44° ESE visible
03 Mar 10.2 22:44:33 10° W 23:30:26 - ESE 22:56:26 58° WSW visible
04 Mar 11.0 01:12:31 10° W 01:47:47 34° SSE 01:58:22 10° SE visible
04 Mar 10.9 04:05:08 28° SW 04:05:08 28° SW 04:21:24 10° S visible
04 Mar 9.7 19:09:10 10° SW 19:19:27 48° SSE 19:32:02 22° E visible
04 Mar 9.9 21:33:06 10° WSW 21:47:51 72° S 21:49:19 71° SSE visible
